TITAN 3C TRANSTAGE DEB, 19592

Orbit data source: Space-Track

TITAN 3C TRANSTAGE DEB, 19592 is space debris in HEO originally from a launch on Tue, 21 Dec 1965 UTC launched from the Air Force Eastern Test Range (AFETR). Debris objects in space refer to the collection of defunct objects orbiting the Earth. Examples of debris include non-operational satellites, rocket bodies, and fragments generated from explosions, collisions, or faulty payload assembly.

Loading next visibility...
Identifier
19592, 1965-108AA
Orbit
HEO
Country
Flag of USUS
Related business
Manufacturer
Unknown
Mission
Spacecraft
Bus & Motor
Unknown
Mass
Unknown
Launch date (UTC)
1965-12-21 (60 years ago)
Launch vehicle
Unknown
Launch site
Air Force Eastern Test Range (AFETR)
Object type
Payload
Rocket body
Debris
Shape & HBR
Unknown shape, 0.3 m
Radar Cross Section
Medium (>0.1 m² and <1 m²)

Expand to show TLE details & history
Last TLE update: 21 hours ago

TLE from 21 hours ago
0 TITAN 3C TRANSTAGE DEB
1 19592U 65108AA  26123.84870977  .00001856  00000-0  78381-2 0  9999
2 19592  26.5770 213.2321 6736936 225.0615  54.2879  2.84319961344076
Epoch: 2026-05-03T20:22Z
TLE epoch observation values (Epoch: 2026-05-03T20:22:08.524Z)
Latitude
-0.26564°
Longitude
45.49126°
Altitude
15,390.096 km
Speed
4.205 km/s
True Right ascension
14h 11m 05s
True Declination
0° 15' 54"
Sunlit
Object was in daylight at epoch
Visualization orbit readout
Latitude
Unknown
Longitude
Unknown
Altitude
Unknown
Speed
Unknown
Apparent Right ascension
Unknown
Apparent Declination
Unknown
Sunlit
N/A
Visualization observer readout
Local Sidereal Time
01:20:05
Azimuth
Unknown
Elevation
Unknown
Doppler factor
Unknown
Orbital elements
Apogee altitude
28,854.733 km
Perigee altitude
490.929 km
Semi-major axis
21,050.968 km
Eccentricity
0.67369
Inclination
26.577°
RAAN
213.2321°
Arg. of periapsis
225.0615°
True anomaly
134.4175°
Mean anomaly
54.2879°
Eccentric anomaly
92.84028°
Mean motion
0.71062 °/min
Orbital period
506.6 mins
BSTAR
0.0078381
Loading maneuver chart data...
Computing Atmospheric mass density...

Documentation

Showing up to 5 results
|